Wetterdaten: Donnerstag, 13.05.2004
Datum Zeit Temp. A Sch. Temp. A Son. Feuchte A. Luftdruck Regen Wind Richtung Richtung Sonnenschein Helligkeit Taupunkt Windchill
13.05.2004 00:00 9,7 C 10,6 C 71 % 1016 hPa 0,0 l/m 3,1 m/s (1 Bft) W-NW45 300 0,00 min 0 lux 4,7 C 6,5 C
13.05.2004 00:05 9,9 C 10,6 C 72 % 1016 hPa 0,0 l/m 0,7 m/s (0 Bft) W22.5 280 0,00 min 0 lux 5,1 C 9,9 C
13.05.2004 00:10 9,9 C 10,6 C 72 % 1016 hPa 0,0 l/m 1,9 m/s (1 Bft) W-NW45 300 0,00 min 0 lux 5,1 C 9,6 C
13.05.2004 00:15 9,6 C 10,6 C 72 % 1016 hPa 0,0 l/m 0,0 m/s (0 Bft) W 275 0,00 min 0 lux 4,8 C 9,6 C
13.05.2004 00:20 9,6 C 10,6 C 72 % 1016 hPa 0,0 l/m 0,0 m/s (0 Bft) W 275 0,00 min 0 lux 4,8 C 9,6 C
13.05.2004 00:25 9,9 C 10,5 C 72 % 1016 hPa 0,0 l/m 0,2 m/s (0 Bft) W22.5 275 0,00 min 0 lux 5,1 C 9,9 C
13.05.2004 00:30 9,6 C 10,5 C 72 % 1016 hPa 0,0 l/m 1,1 m/s (0 Bft) W-NW45 285 0,00 min 0 lux 4,8 C 9,6 C
13.05.2004 00:35 9,7 C 10,5 C 72 % 1016 hPa 0,0 l/m 1,6 m/s (1 Bft) W22.5 270 0,00 min 0 lux 4,9 C 9,7 C
13.05.2004 00:40 9,7 C 10,5 C 73 % 1016 hPa 0,0 l/m 2,6 m/s (1 Bft) W-NW45 290 0,00 min 0 lux 5,1 C 7,6 C
13.05.2004 00:45 9,6 C 10,4 C 73 % 1016 hPa 0,0 l/m 1,6 m/s (1 Bft) W-NW22.5 285 0,00 min 0 lux 5,0 C 9,6 C
13.05.2004 00:50 9,6 C 10,4 C 73 % 1016 hPa 0,0 l/m 2,1 m/s (1 Bft) W-NW22.5 295 0,00 min 0 lux 5,0 C 8,9 C
13.05.2004 00:55 9,6 C 10,4 C 73 % 1016 hPa 0,0 l/m 1,3 m/s (1 Bft) W-NW45 290 0,00 min 0 lux 5,0 C 9,6 C
13.05.2004 01:00 9,6 C 10,4 C 73 % 1016 hPa 0,0 l/m 2,0 m/s (1 Bft) W-NW22.5 285 0,00 min 0 lux 5,0 C 9,0 C
13.05.2004 01:05 9,7 C 10,3 C 73 % 1016 hPa 0,0 l/m 0,9 m/s (0 Bft) W22.5 280 0,00 min 0 lux 5,1 C 9,7 C
13.05.2004 01:10 9,6 C 10,3 C 73 % 1016 hPa 0,0 l/m 0,9 m/s (0 Bft) W67.5 275 0,00 min 0 lux 5,0 C 9,6 C
13.05.2004 01:15 9,6 C 10,3 C 73 % 1016 hPa 0,0 l/m 1,5 m/s (1 Bft) W-NW45 295 0,00 min 0 lux 5,0 C 9,6 C
13.05.2004 01:20 9,5 C 10,3 C 72 % 1016 hPa 0,0 l/m 1,9 m/s (1 Bft) W-NW45 295 0,00 min 0 lux 4,7 C 9,1 C
13.05.2004 01:25 9,3 C 10,2 C 72 % 1016 hPa 0,0 l/m 2,7 m/s (1 Bft) W-NW22.5 290 0,00 min 0 lux 4,5 C 7,1 C
13.05.2004 01:30 9,5 C 10,2 C 72 % 1016 hPa 0,0 l/m 2,8 m/s (1 Bft) W-NW22.5 295 0,00 min 0 lux 4,7 C 6,9 C
13.05.2004 01:35 9,5 C 10,2 C 71 % 1016 hPa 0,0 l/m 2,2 m/s (1 Bft) NW22.5 310 0,00 min 0 lux 4,5 C 8,5 C
13.05.2004 01:40 9,5 C 10,1 C 71 % 1016 hPa 0,0 l/m 1,8 m/s (1 Bft) W-NW22.5 295 0,00 min 0 lux 4,5 C 9,5 C
13.05.2004 01:45 9,5 C 10,1 C 71 % 1016 hPa 0,0 l/m 2,7 m/s (1 Bft) W-NW45 290 0,00 min 0 lux 4,5 C 7,3 C
13.05.2004 01:50 9,5 C 10,1 C 70 % 1016 hPa 0,0 l/m 2,9 m/s (1 Bft) W-NW22.5 290 0,00 min 0 lux 4,3 C 6,8 C
13.05.2004 01:55 9,5 C 10,1 C 71 % 1016 hPa 0,0 l/m 1,6 m/s (1 Bft) NW45 305 0,00 min 0 lux 4,5 C 9,5 C
13.05.2004 02:00 9,5 C 10,1 C 71 % 1015 hPa 0,0 l/m 1,1 m/s (0 Bft) W-NW45 290 0,00 min 0 lux 4,5 C 9,5 C
13.05.2004 02:05 9,1 C 10,1 C 70 % 1016 hPa 0,0 l/m 3,8 m/s (1 Bft) W-NW22.5 285 0,00 min 0 lux 3,9 C 4,7 C
13.05.2004 02:10 9,1 C 10,0 C 70 % 1016 hPa 0,0 l/m 0,9 m/s (0 Bft) W22.5 275 0,00 min 0 lux 3,9 C 9,1 C
13.05.2004 02:15 9,4 C 10,0 C 71 % 1016 hPa 0,0 l/m 0,0 m/s (0 Bft) W 260 0,00 min 0 lux 4,4 C 9,4 C
13.05.2004 02:20 9,3 C 10,0 C 71 % 1016 hPa 0,0 l/m 0,3 m/s (0 Bft) W22.5 265 0,00 min 0 lux 4,3 C 9,3 C
13.05.2004 02:25 9,0 C 10,0 C 72 % 1016 hPa 0,0 l/m 1,8 m/s (1 Bft) W-NW22.5 295 0,00 min 0 lux 4,2 C 9,0 C
13.05.2004 02:30 9,2 C 9,9 C 72 % 1015 hPa 0,0 l/m 2,4 m/s (1 Bft) NW45 325 0,00 min 0 lux 4,4 C 7,5 C
13.05.2004 02:35 9,1 C 9,8 C 72 % 1015 hPa 0,0 l/m 2,4 m/s (1 Bft) W-NW22.5 285 0,00 min 0 lux 4,3 C 7,4 C
13.05.2004 02:40 9,0 C 9,8 C 73 % 1015 hPa 0,0 l/m 3,1 m/s (1 Bft) W-NW45 295 0,00 min 0 lux 4,4 C 5,9 C
13.05.2004 02:45 8,9 C 9,7 C 74 % 1015 hPa 0,0 l/m 3,5 m/s (1 Bft) W-NW22.5 295 0,00 min 0 lux 4,5 C 5,0 C
13.05.2004 02:50 8,9 C 9,7 C 75 % 1015 hPa 0,0 l/m 2,4 m/s (1 Bft) W-NW22.5 285 0,00 min 0 lux 4,7 C 7,3 C
13.05.2004 02:55 8,8 C 9,6 C 75 % 1015 hPa 0,0 l/m 2,4 m/s (1 Bft) NW67.5 305 0,00 min 0 lux 4,6 C 7,1 C
13.05.2004 03:00 8,8 C 9,6 C 74 % 1015 hPa 0,0 l/m 3,0 m/s (1 Bft) W-NW22.5 300 0,00 min 0 lux 4,4 C 5,8 C
13.05.2004 03:05 8,4 C 9,5 C 73 % 1015 hPa 0,0 l/m 4,8 m/s (1 Bft) NW45 305 0,00 min 0 lux 3,8 C 2,2 C
13.05.2004 03:10 8,6 C 9,4 C 73 % 1015 hPa 0,0 l/m 1,3 m/s (1 Bft) W-NW22.5 290 0,00 min 0 lux 4,0 C 8,6 C
13.05.2004 03:15 8,6 C 9,3 C 73 % 1015 hPa 0,0 l/m 3,8 m/s (1 Bft) W-NW22.5 295 0,00 min 0 lux 4,0 C 4,1 C
13.05.2004 03:20 8,5 C 9,3 C 73 % 1015 hPa 0,0 l/m 2,6 m/s (1 Bft) W45 280 0,00 min 0 lux 3,9 C 6,4 C
13.05.2004 03:25 8,1 C 9,2 C 73 % 1015 hPa 0,0 l/m 3,7 m/s (1 Bft) W-NW22.5 300 0,00 min 0 lux 3,6 C 3,6 C
13.05.2004 03:30 8,4 C 9,2 C 73 % 1015 hPa 0,0 l/m 3,3 m/s (1 Bft) W-NW22.5 295 0,00 min 0 lux 3,8 C 4,8 C
13.05.2004 03:35 8,2 C 9,1 C 73 % 1015 hPa 0,0 l/m 4,9 m/s (1 Bft) NW45 305 0,00 min 0 lux 3,7 C 1,8 C
13.05.2004 03:40 8,2 C 9,0 C 74 % 1015 hPa 0,0 l/m 3,4 m/s (1 Bft) W-NW45 295 0,00 min 0 lux 3,8 C 4,4 C
13.05.2004 03:45 8,1 C 8,9 C 74 % 1015 hPa 0,0 l/m 2,8 m/s (1 Bft) NW67.5 315 0,00 min 0 lux 3,8 C 5,5 C
13.05.2004 03:50 8,1 C 8,8 C 74 % 1015 hPa 0,0 l/m 3,1 m/s (1 Bft) W-NW45 295 0,00 min 0 lux 3,8 C 4,8 C
13.05.2004 03:55 8,1 C 8,8 C 74 % 1015 hPa 0,0 l/m 2,4 m/s (1 Bft) W-NW22.5 295 0,00 min 0 lux 3,8 C 6,4 C
13.05.2004 04:00 8,0 C 8,8 C 74 % 1015 hPa 0,0 l/m 2,3 m/s (1 Bft) W-NW45 295 0,00 min 0 lux 3,7 C 6,6 C
13.05.2004 04:05 8,1 C 8,8 C 73 % 1015 hPa 0,0 l/m 3,4 m/s (1 Bft) NW45 305 0,00 min 0 lux 3,6 C 4,1 C
13.05.2004 04:10 8,1 C 8,7 C 73 % 1015 hPa 0,0 l/m 2,5 m/s (1 Bft) W-NW22.5 295 0,00 min 0 lux 3,6 C 6,2 C
13.05.2004 04:15 8,0 C 8,7 C 73 % 1015 hPa 0,0 l/m 1,6 m/s (1 Bft) NW67.5 305 0,00 min 0 lux 3,5 C 8,0 C
13.05.2004 04:20 8,1 C 8,7 C 73 % 1015 hPa 0,0 l/m 0,3 m/s (0 Bft) W-NW45 295 0,00 min 0 lux 3,6 C 8,1 C
13.05.2004 04:25 8,1 C 8,7 C 73 % 1015 hPa 0,0 l/m 0,1 m/s (0 Bft) W-NW22.5 285 0,00 min 0 lux 3,6 C 8,1 C
13.05.2004 04:30 8,1 C 8,7 C 74 % 1015 hPa 0,0 l/m 0,0 m/s (0 Bft) W 275 0,00 min 0 lux 3,8 C 8,1 C
13.05.2004 04:35 8,0 C 8,6 C 73 % 1015 hPa 0,0 l/m 2,6 m/s (1 Bft) W-NW22.5 300 0,00 min 0 lux 3,5 C 5,9 C
13.05.2004 04:40 8,0 C 8,6 C 73 % 1015 hPa 0,0 l/m 1,8 m/s (1 Bft) NW45 305 0,00 min 0 lux 3,5 C 8,0 C
13.05.2004 04:45 8,0 C 8,6 C 72 % 1015 hPa 0,0 l/m 3,0 m/s (1 Bft) W-NW45 295 0,00 min 0 lux 3,3 C 4,9 C
13.05.2004 04:50 7,7 C 8,6 C 73 % 1015 hPa 0,0 l/m 2,0 m/s (1 Bft) W-NW45 300 0,00 min 0 lux 3,2 C 7,1 C
13.05.2004 04:55 8,0 C 8,6 C 72 % 1015 hPa 0,0 l/m 0,2 m/s (0 Bft) W22.5 265 0,00 min 0 lux 3,3 C 8,0 C
13.05.2004 05:00 8,0 C 8,5 C 72 % 1015 hPa 0,0 l/m 1,9 m/s (1 Bft) W-NW22.5 285 0,00 min 0 lux 3,3 C 7,8 C
13.05.2004 05:05 8,0 C 8,5 C 72 % 1015 hPa 0,0 l/m 0,0 m/s (0 Bft) N45 0 0,00 min 0 lux 3,3 C 8,0 C
13.05.2004 05:10 7,9 C 8,5 C 72 % 1015 hPa 0,0 l/m 1,7 m/s (1 Bft) W-NW22.5 295 0,00 min 0 lux 3,2 C 7,9 C
13.05.2004 05:15 7,9 C 8,5 C 71 % 1015 hPa 0,0 l/m 0,3 m/s (0 Bft) W-NW45 300 0,00 min 0 lux 3,0 C 7,9 C
13.05.2004 05:20 7,7 C 8,5 C 70 % 1015 hPa 0,0 l/m 0,9 m/s (0 Bft) W-NW67.5 295 0,00 min 0 lux 2,6 C 7,7 C
13.05.2004 05:25 7,6 C 8,4 C 69 % 1015 hPa 0,0 l/m 0,3 m/s (0 Bft) N-NW45 335 0,00 min 0 lux 2,3 C 7,6 C
13.05.2004 05:30 7,6 C 8,4 C 69 % 1015 hPa 0,0 l/m 4,1 m/s (1 Bft) NW67.5 310 0,00 min 0 lux 2,3 C 2,4 C
13.05.2004 05:35 7,4 C 8,3 C 69 % 1015 hPa 0,0 l/m 2,5 m/s (1 Bft) NW67.5 305 0,00 min 59 lux 2,1 C 5,5 C
13.05.2004 05:40 7,3 C 8,3 C 68 % 1015 hPa 0,0 l/m 2,8 m/s (1 Bft) NW67.5 315 0,00 min 86 lux 1,8 C 4,5 C
13.05.2004 05:45 7,3 C 8,3 C 68 % 1016 hPa 0,0 l/m 1,4 m/s (1 Bft) NW67.5 315 0,00 min 123 lux 1,8 C 7,3 C
13.05.2004 05:50 7,3 C 8,1 C 68 % 1016 hPa 0,0 l/m 0,2 m/s (0 Bft) NW45 305 0,00 min 148 lux 1,8 C 7,3 C
13.05.2004 05:55 7,0 C 8,1 C 68 % 1016 hPa 0,0 l/m 2,3 m/s (1 Bft) W-NW45 295 0,00 min 167 lux 1,5 C 5,4 C
13.05.2004 06:00 7,3 C 8,0 C 67 % 1016 hPa 0,0 l/m 2,0 m/s (1 Bft) W-NW67.5 285 0,00 min 259 lux 1,6 C 6,7 C
13.05.2004 06:05 7,2 C 8,0 C 67 % 1016 hPa 0,0 l/m 0,4 m/s (0 Bft) N67.5 5 0,00 min 341 lux 1,5 C 7,2 C
13.05.2004 06:10 7,1 C 8,0 C 66 % 1016 hPa 0,0 l/m 0,6 m/s (0 Bft) N-NW67.5 340 0,00 min 409 lux 1,2 C 7,1 C
13.05.2004 06:15 7,1 C 7,9 C 67 % 1016 hPa 0,0 l/m 1,4 m/s (1 Bft) N-NO45 20 0,00 min 540 lux 1,4 C 7,1 C
13.05.2004 06:20 7,1 C 7,9 C 67 % 1016 hPa 0,0 l/m 0,2 m/s (0 Bft) N-NO45 15 0,00 min 682 lux 1,4 C 7,1 C
13.05.2004 06:25 7,1 C 7,9 C 67 % 1016 hPa 0,0 l/m 0,0 m/s (0 Bft) O 85 0,00 min 1,23 klux 1,4 C 7,1 C
13.05.2004 06:30 7,1 C 7,9 C 66 % 1016 hPa 0,0 l/m 2,1 m/s (1 Bft) W-NW45 290 0,00 min 1,74 klux 1,2 C 6,1 C
13.05.2004 06:35 7,2 C 7,8 C 66 % 1016 hPa 0,0 l/m 2,7 m/s (1 Bft) N-NW45 335 0,00 min 1,72 klux 1,3 C 4,7 C
13.05.2004 06:40 7,1 C 7,8 C 65 % 1016 hPa 0,0 l/m 0,1 m/s (0 Bft) W22.5 265 0,00 min 1,76 klux 1,0 C 7,1 C
13.05.2004 06:45 7,4 C 7,8 C 65 % 1016 hPa 0,0 l/m 1,5 m/s (1 Bft) W-NW 285 0,00 min 3,85 klux 1,3 C 7,4 C
13.05.2004 06:50 7,1 C 7,9 C 65 % 1016 hPa 0,0 l/m 0,3 m/s (0 Bft) O22.5 90 0,00 min 4,64 klux 1,0 C 7,1 C
13.05.2004 06:55 7,5 C 8,0 C 65 % 1016 hPa 0,0 l/m 0,0 m/s (0 Bft) O 95 0,00 min 5,32 klux 1,4 C 7,5 C
13.05.2004 07:00 7,6 C 8,0 C 65 % 1016 hPa 0,0 l/m 0,0 m/s (0 Bft) O 95 0,00 min 6,18 klux 1,5 C 7,6 C
13.05.2004 07:05 7,6 C 8,1 C 64 % 1016 hPa 0,0 l/m 0,2 m/s (0 Bft) NO67.5 50 0,00 min 7,11 klux 1,2 C 7,6 C
13.05.2004 07:10 7,8 C 8,1 C 63 % 1016 hPa 0,0 l/m 0,8 m/s (0 Bft) W 275 0,00 min 8,25 klux 1,2 C 7,8 C
13.05.2004 07:15 7,9 C 8,2 C 63 % 1016 hPa 0,0 l/m 0,0 m/s (0 Bft) W22.5 275 0,00 min 9,0 klux 1,3 C 7,9 C
13.05.2004 07:20 8,0 C 8,3 C 62 % 1016 hPa 0,0 l/m 0,1 m/s (0 Bft) W 265 0,00 min 9,8 klux 1,2 C 8,0 C
13.05.2004 07:25 8,1 C 8,3 C 63 % 1016 hPa 0,0 l/m 1,8 m/s (1 Bft) W22.5 265 0,00 min 11,9 klux 1,5 C 8,1 C
13.05.2004 07:30 7,9 C 8,4 C 64 % 1016 hPa 0,0 l/m 2,2 m/s (1 Bft) W22.5 275 0,00 min 13,0 klux 1,5 C 6,7 C
13.05.2004 07:35 7,9 C 8,5 C 63 % 1016 hPa 0,0 l/m 2,0 m/s (1 Bft) W22.5 275 0,00 min 14,2 klux 1,3 C 7,3 C
13.05.2004 07:40 7,9 C 8,5 C 63 % 1016 hPa 0,0 l/m 2,9 m/s (1 Bft) W-NW45 285 0,00 min 15,0 klux 1,3 C 5,0 C
13.05.2004 07:45 8,0 C 8,5 C 62 % 1016 hPa 0,0 l/m 3,3 m/s (1 Bft) W22.5 275 0,00 min 15,7 klux 1,2 C 4,2 C
13.05.2004 07:50 8,0 C 8,6 C 63 % 1016 hPa 0,0 l/m 2,7 m/s (1 Bft) W-SW22.5 255 0,00 min 16,2 klux 1,4 C 5,5 C
13.05.2004 07:55 8,2 C 8,7 C 62 % 1016 hPa 0,0 l/m 2,4 m/s (1 Bft) W-SW45 255 0,00 min 16,5 klux 1,4 C 6,4 C
13.05.2004 08:00 8,2 C 8,7 C 62 % 1016 hPa 0,0 l/m 2,0 m/s (1 Bft) W45 280 0,00 min 23,1 klux 1,4 C 7,6 C
13.05.2004 08:05 10,1 C 8,8 C 60 % 1016 hPa 0,0 l/m 2,1 m/s (1 Bft) W-SW45 255 5,00 min 47,3 klux 2,7 C 9,4 C
13.05.2004 08:10 9,8 C 8,8 C 56 % 1016 hPa 0,0 l/m 1,4 m/s (1 Bft) W22.5 265 0,00 min 23,6 klux 1,4 C 9,8 C
13.05.2004 08:15 10,6 C 8,8 C 55 % 1016 hPa 0,0 l/m 2,8 m/s (1 Bft) W45 280 5,00 min 57,1 klux 1,9 C 8,1 C
13.05.2004 08:20 9,6 C 9,0 C 55 % 1016 hPa 0,0 l/m 2,9 m/s (1 Bft) W22.5 260 0,00 min 21,9 klux 1,0 C 6,8 C
13.05.2004 08:25 9,3 C 9,0 C 59 % 1016 hPa 0,0 l/m 3,5 m/s (1 Bft) W22.5 265 0,00 min 25,6 klux 1,7 C 5,4 C
13.05.2004 08:30 9,4 C 9,1 C 60 % 1016 hPa 0,0 l/m 2,7 m/s (1 Bft) W22.5 265 0,00 min 28,4 klux 2,0 C 7,1 C
13.05.2004 08:35 9,3 C 9,1 C 61 % 1016 hPa 0,0 l/m 3,6 m/s (1 Bft) W-SW45 250 5,00 min 55,0 klux 2,2 C 5,3 C
13.05.2004 08:40 9,6 C 9,1 C 59 % 1016 hPa 0,0 l/m 4,3 m/s (1 Bft) W45 280 5,00 min 59,2 klux 2,0 C 4,4 C
13.05.2004 08:45 9,2 C 9,1 C 58 % 1016 hPa 0,0 l/m 5,4 m/s (1 Bft) W-NW45 285 5,00 min 37,8 klux 1,4 C 2,4 C
13.05.2004 08:50 9,0 C 9,2 C 60 % 1017 hPa 0,0 l/m 4,6 m/s (1 Bft) W45 280 0,00 min 24,9 klux 1,7 C 3,3 C
13.05.2004 08:55 9,2 C 9,3 C 60 % 1017 hPa 0,0 l/m 4,6 m/s (1 Bft) W22.5 275 0,00 min 29,0 klux 1,8 C 3,5 C
13.05.2004 09:00 9,2 C 9,4 C 60 % 1017 hPa 0,0 l/m 4,6 m/s (1 Bft) W45 275 0,00 min 30,7 klux 1,8 C 3,5 C
13.05.2004 09:05 9,0 C 9,5 C 60 % 1017 hPa 0,0 l/m 4,4 m/s (1 Bft) W-NW22.5 285 0,00 min 22,3 klux 1,7 C 3,6 C
13.05.2004 09:10 9,1 C 9,5 C 61 % 1017 hPa 0,0 l/m 3,7 m/s (1 Bft) W45 270 0,00 min 20,1 klux 2,0 C 4,8 C
13.05.2004 09:15 9,1 C 9,7 C 60 % 1017 hPa 0,0 l/m 2,9 m/s (1 Bft) W45 275 0,00 min 18,4 klux 1,8 C 6,3 C
13.05.2004 09:20 9,1 C 9,8 C 61 % 1017 hPa 0,0 l/m 3,3 m/s (1 Bft) W45 260 0,00 min 25,6 klux 2,0 C 5,6 C
13.05.2004 09:25 9,6 C 9,9 C 60 % 1017 hPa 0,0 l/m 2,5 m/s (1 Bft) W45 260 0,00 min 31,5 klux 2,2 C 7,8 C
13.05.2004 09:30 9,6 C 10,0 C 60 % 1017 hPa 0,0 l/m 3,3 m/s (1 Bft) W45 260 0,00 min 25,5 klux 2,2 C 6,1 C
13.05.2004 09:35 9,2 C 10,0 C 60 % 1017 hPa 0,0 l/m 4,2 m/s (1 Bft) W22.5 275 0,00 min 19,9 klux 1,8 C 4,1 C
13.05.2004 09:40 9,2 C 10,1 C 62 % 1017 hPa 0,0 l/m 3,0 m/s (1 Bft) W22.5 280 0,00 min 19,7 klux 2,3 C 6,2 C
13.05.2004 09:45 9,3 C 10,1 C 62 % 1017 hPa 0,0 l/m 3,4 m/s (1 Bft) W-NW45 285 0,00 min 20,0 klux 2,4 C 5,7 C
13.05.2004 09:50 9,4 C 10,1 C 61 % 1017 hPa 0,0 l/m 3,7 m/s (1 Bft) W-NW45 285 0,00 min 27,9 klux 2,3 C 5,2 C
13.05.2004 09:55 9,6 C 10,2 C 61 % 1017 hPa 0,0 l/m 5,0 m/s (1 Bft) W-NW45 285 0,00 min 32,8 klux 2,5 C 3,5 C
13.05.2004 10:00 10,0 C 10,2 C 59 % 1017 hPa 0,0 l/m 3,1 m/s (1 Bft) W-NW45 285 0,00 min 31,1 klux 2,4 C 6,9 C
13.05.2004 10:05 10,3 C 10,3 C 59 % 1017 hPa 0,0 l/m 4,1 m/s (1 Bft) NW67.5 320 0,00 min 29,3 klux 2,6 C 5,7 C
13.05.2004 10:10 9,7 C 10,4 C 60 % 1017 hPa 0,0 l/m 3,8 m/s (1 Bft) W45 270 0,00 min 26,0 klux 2,3 C 5,3 C
13.05.2004 10:15 9,7 C 10,3 C 61 % 1017 hPa 0,0 l/m 3,8 m/s (1 Bft) W-NW45 290 0,00 min 21,4 klux 2,5 C 5,4 C
13.05.2004 10:20 9,6 C 10,3 C 61 % 1017 hPa 0,0 l/m 3,4 m/s (1 Bft) W-NW67.5 300 0,00 min 18,4 klux 2,5 C 6,0 C
13.05.2004 10:25 9,8 C 10,2 C 62 % 1017 hPa 0,0 l/m 3,1 m/s (1 Bft) W-NW45 295 0,00 min 18,5 klux 2,9 C 6,8 C
13.05.2004 10:30 9,3 C 10,1 C 63 % 1017 hPa 0,0 l/m 3,7 m/s (1 Bft) W22.5 280 0,00 min 14,6 klux 2,6 C 5,1 C
13.05.2004 10:35 8,9 C 10,1 C 64 % 1017 hPa 0,0 l/m 3,6 m/s (1 Bft) W-SW22.5 255 0,00 min 14,5 klux 2,5 C 4,8 C
13.05.2004 10:40 9,1 C 10,1 C 64 % 1017 hPa 0,0 l/m 1,8 m/s (1 Bft) W45 270 0,00 min 20,3 klux 2,7 C 9,0 C
13.05.2004 10:45 9,0 C 10,0 C 64 % 1017 hPa 0,0 l/m 3,1 m/s (1 Bft) W22.5 270 0,00 min 20,2 klux 2,6 C 5,9 C
13.05.2004 10:50 8,9 C 10,0 C 65 % 1017 hPa 0,0 l/m 3,5 m/s (1 Bft) W22.5 260 0,00 min 14,6 klux 2,7 C 4,9 C
13.05.2004 10:55 9,1 C 10,0 C 64 % 1017 hPa 0,0 l/m 3,0 m/s (1 Bft) W22.5 265 0,00 min 21,2 klux 2,7 C 6,1 C
13.05.2004 11:00 9,4 C 10,1 C 64 % 1017 hPa 0,0 l/m 1,7 m/s (1 Bft) W-SW45 250 0,00 min 27,8 klux 2,9 C 9,4 C
13.05.2004 11:05 9,8 C 10,3 C 63 % 1017 hPa 0,0 l/m 2,9 m/s (1 Bft) W22.5 265 0,00 min 29,7 klux 3,1 C 7,1 C
13.05.2004 11:10 9,9 C 10,4 C 63 % 1017 hPa 0,0 l/m 2,9 m/s (1 Bft) W22.5 265 0,00 min 34,7 klux 3,2 C 7,3 C
13.05.2004 11:15 9,7 C 10,5 C 63 % 1017 hPa 0,0 l/m 3,4 m/s (1 Bft) W-NW22.5 285 0,00 min 18,2 klux 3,0 C 6,0 C
13.05.2004 11:20 9,9 C 10,6 C 63 % 1017 hPa 0,0 l/m 2,1 m/s (1 Bft) W45 260 0,00 min 23,6 klux 3,2 C 9,2 C
13.05.2004 11:25 10,1 C 10,6 C 63 % 1017 hPa 0,0 l/m 2,9 m/s (1 Bft) W-SW45 240 0,00 min 27,5 klux 3,4 C 7,4 C
13.05.2004 11:30 10,0 C 10,6 C 62 % 1017 hPa 0,0 l/m 2,5 m/s (1 Bft) SW22.5 230 0,00 min 21,0 klux 3,1 C 8,1 C
13.05.2004 11:35 9,9 C 10,5 C 65 % 1017 hPa 0,0 l/m 2,1 m/s (1 Bft) W-SW45 240 0,00 min 16,6 klux 3,6 C 9,2 C
13.05.2004 11:40 9,3 C 10,5 C 65 % 1017 hPa 0,0 l/m 3,1 m/s (1 Bft) SW22.5 230 0,00 min 12,2 klux 3,1 C 6,1 C
13.05.2004 11:45 9,6 C 10,5 C 66 % 1017 hPa 0,0 l/m 2,3 m/s (1 Bft) W22.5 260 0,00 min 12,5 klux 3,6 C 8,3 C
13.05.2004 11:50 9,7 C 10,5 C 65 % 1017 hPa 0,0 l/m 1,4 m/s (1 Bft) W-SW22.5 245 0,00 min 15,4 klux 3,4 C 9,7 C
13.05.2004 11:55 10,1 C 10,5 C 64 % 1017 hPa 0,0 l/m 1,6 m/s (1 Bft) W22.5 260 0,00 min 18,5 klux 3,6 C 10,1 C
13.05.2004 12:00 10,6 C 10,6 C 64 % 1017 hPa 0,0 l/m 0,0 m/s (0 Bft) SW67.5 215 0,00 min 22,5 klux 4,1 C 10,6 C
13.05.2004 12:05 10,5 C 10,7 C 63 % 1017 hPa 0,0 l/m 3,4 m/s (1 Bft) W22.5 260 0,00 min 29,6 klux 3,8 C 6,9 C
13.05.2004 12:10 11,5 C 10,9 C 62 % 1017 hPa 0,0 l/m 3,3 m/s (1 Bft) W67.5 270 0,00 min 38,1 klux 4,5 C 8,3 C
13.05.2004 12:15 12,0 C 11,0 C 58 % 1017 hPa 0,0 l/m 3,1 m/s (1 Bft) W-NW45 300 0,00 min 39,2 klux 4,0 C 9,1 C
13.05.2004 12:20 12,0 C 11,3 C 59 % 1017 hPa 0,0 l/m 4,4 m/s (1 Bft) NW45 305 0,00 min 41,9 klux 4,2 C 7,3 C
13.05.2004 12:25 11,5 C 11,5 C 60 % 1017 hPa 0,0 l/m 3,2 m/s (1 Bft) W-NW67.5 295 0,00 min 37,2 klux 4,0 C 8,5 C
13.05.2004 12:30 11,4 C 11,6 C 60 % 1017 hPa 0,0 l/m 2,3 m/s (1 Bft) NW67.5 315 0,00 min 28,9 klux 3,9 C 10,1 C
13.05.2004 12:35 11,0 C 11,6 C 60 % 1017 hPa 0,0 l/m 5,3 m/s (1 Bft) NW45 310 0,00 min 26,4 klux 3,5 C 4,8 C
13.05.2004 12:40 10,7 C 11,6 C 63 % 1017 hPa 0,0 l/m 5,0 m/s (1 Bft) W-NW45 295 0,00 min 22,7 klux 3,9 C 4,9 C
13.05.2004 12:45 10,3 C 11,5 C 64 % 1017 hPa 0,0 l/m 6,4 m/s (2 Bft) W-NW67.5 290 0,00 min 20,6 klux 3,8 C 2,8 C
13.05.2004 12:50 10,4 C 11,4 C 65 % 1017 hPa 0,0 l/m 5,2 m/s (1 Bft) W-NW45 295 0,00 min 23,5 klux 4,1 C 4,2 C
13.05.2004 12:55 10,4 C 11,5 C 66 % 1017 hPa 0,0 l/m 3,4 m/s (1 Bft) W-NW67.5 300 0,00 min 29,5 klux 4,3 C 6,8 C
13.05.2004 13:00 11,1 C 11,7 C 65 % 1017 hPa 0,0 l/m 3,9 m/s (1 Bft) W-NW45 285 0,00 min 34,8 klux 4,8 C 6,9 C
13.05.2004 13:05 11,1 C 11,7 C 63 % 1018 hPa 0,0 l/m 3,0 m/s (1 Bft) NW45 305 0,00 min 37,2 klux 4,3 C 8,4 C
13.05.2004 13:10 11,3 C 11,8 C 62 % 1018 hPa 0,0 l/m 5,4 m/s (1 Bft) W-NW45 290 0,00 min 34,8 klux 4,3 C 5,1 C
13.05.2004 13:15 11,2 C 11,8 C 61 % 1018 hPa 0,0 l/m 3,6 m/s (1 Bft) W-NW45 295 0,00 min 31,9 klux 4,0 C 7,5 C
13.05.2004 13:20 11,5 C 11,9 C 63 % 1018 hPa 0,0 l/m 3,7 m/s (1 Bft) W-NW45 300 0,00 min 29,2 klux 4,7 C 7,7 C
13.05.2004 13:25 11,5 C 11,8 C 62 % 1018 hPa 0,0 l/m 3,1 m/s (1 Bft) W-NW45 290 0,00 min 30,1 klux 4,5 C 8,6 C
13.05.2004 13:30 11,6 C 11,9 C 62 % 1017 hPa 0,0 l/m 4,3 m/s (1 Bft) W-NW45 295 0,00 min 33,1 klux 4,6 C 6,8 C
13.05.2004 13:35 12,1 C 12,2 C 61 % 1017 hPa 0,0 l/m 1,9 m/s (1 Bft) W45 265 0,00 min 45,7 klux 4,8 C 11,8 C
13.05.2004 13:40 12,4 C 12,4 C 61 % 1017 hPa 0,0 l/m 3,3 m/s (1 Bft) W-NW67.5 290 0,00 min 45,5 klux 5,1 C 9,4 C
13.05.2004 13:45 12,1 C 12,7 C 57 % 1017 hPa 0,0 l/m 3,5 m/s (1 Bft) W22.5 280 0,00 min 48,4 klux 3,8 C 8,6 C
13.05.2004 13:50 12,7 C 12,9 C 59 % 1017 hPa 0,0 l/m 3,3 m/s (1 Bft) W45 270 0,00 min 54,0 klux 4,9 C 9,8 C
13.05.2004 13:55 13,3 C 13,4 C 58 % 1017 hPa 0,0 l/m 2,6 m/s (1 Bft) W-NW67.5 285 0,00 min 54,5 klux 5,2 C 11,5 C
13.05.2004 14:00 14,0 C 13,7 C 55 % 1017 hPa 0,0 l/m 2,9 m/s (1 Bft) S-SW67.5 205 0,00 min 60,8 klux 5,1 C 11,7 C
13.05.2004 14:05 13,4 C 14,1 C 53 % 1017 hPa 0,0 l/m 3,1 m/s (1 Bft) W45 265 0,00 min 64,8 klux 4,0 C 10,7 C
13.05.2004 14:10 13,5 C 14,4 C 51 % 1017 hPa 0,0 l/m 2,7 m/s (1 Bft) NW22.5 310 0,00 min 60,5 klux 3,6 C 11,6 C
13.05.2004 14:15 13,8 C 14,5 C 53 % 1017 hPa 0,0 l/m 0,2 m/s (0 Bft) W45 265 0,00 min 41,7 klux 4,4 C 13,8 C
13.05.2004 14:20 13,5 C 14,4 C 53 % 1017 hPa 0,0 l/m 7,1 m/s (2 Bft) W-NW67.5 300 0,00 min 33,5 klux 4,1 C 6,5 C
13.05.2004 14:25 13,7 C 14,3 C 53 % 1017 hPa 0,0 l/m 1,3 m/s (1 Bft) N-NW67.5 335 0,00 min 35,6 klux 4,3 C 13,7 C
13.05.2004 14:30 13,1 C 14,2 C 53 % 1017 hPa 0,0 l/m 4,9 m/s (1 Bft) W67.5 275 0,00 min 36,6 klux 3,7 C 8,0 C
13.05.2004 14:35 13,0 C 14,2 C 53 % 1017 hPa 0,0 l/m 3,4 m/s (1 Bft) W22.5 275 0,00 min 38,6 klux 3,6 C 9,8 C
13.05.2004 14:40 13,8 C 14,2 C 52 % 1017 hPa 0,0 l/m 2,6 m/s (1 Bft) W45 275 0,00 min 47,1 klux 4,1 C 12,0 C
13.05.2004 14:45 13,5 C 14,3 C 51 % 1017 hPa 0,0 l/m 2,6 m/s (1 Bft) W22.5 280 0,00 min 44,5 klux 3,6 C 11,8 C
13.05.2004 14:50 12,7 C 14,3 C 54 % 1017 hPa 0,0 l/m 3,8 m/s (1 Bft) W22.5 270 0,00 min 32,0 klux 3,6 C 8,9 C
13.05.2004 14:55 12,5 C 14,1 C 55 % 1017 hPa 0,0 l/m 4,4 m/s (1 Bft) W22.5 260 0,00 min 22,1 klux 3,7 C 7,8 C
13.05.2004 15:00 12,5 C 14,0 C 57 % 1017 hPa 0,0 l/m 0,2 m/s (0 Bft) S-SW67.5 205 0,00 min 18,1 klux 4,2 C 12,5 C
13.05.2004 15:05 13,0 C 13,9 C 55 % 1017 hPa 0,0 l/m 0,3 m/s (0 Bft) S-SO67.5 155 0,00 min 23,7 klux 4,2 C 13,0 C
13.05.2004 15:10 13,5 C 13,8 C 54 % 1017 hPa 0,0 l/m 0,2 m/s (0 Bft) W22.5 260 0,00 min 30,3 klux 4,4 C 13,5 C
13.05.2004 15:15 13,3 C 13,9 C 55 % 1017 hPa 0,0 l/m 1,9 m/s (1 Bft) S-SW45 210 0,00 min 31,4 klux 4,5 C 13,1 C
13.05.2004 15:20 13,6 C 13,9 C 55 % 1017 hPa 0,0 l/m 1,6 m/s (1 Bft) SW45 215 0,00 min 32,1 klux 4,7 C 13,6 C
13.05.2004 15:25 13,4 C 13,9 C 52 % 1017 hPa 0,0 l/m 2,9 m/s (1 Bft) W-SW67.5 255 0,00 min 29,3 klux 3,7 C 11,1 C
13.05.2004 15:30 13,1 C 14,1 C 54 % 1017 hPa 0,0 l/m 2,9 m/s (1 Bft) SW45 220 0,00 min 27,0 klux 4,0 C 10,8 C
13.05.2004 15:35 13,1 C 14,1 C 55 % 1017 hPa 0,0 l/m 2,7 m/s (1 Bft) W-SW22.5 245 0,00 min 29,4 klux 4,3 C 11,1 C
13.05.2004 15:40 13,3 C 14,1 C 53 % 1017 hPa 0,0 l/m 2,2 m/s (1 Bft) W22.5 265 0,00 min 30,9 klux 3,9 C 12,4 C
13.05.2004 15:45 13,4 C 14,1 C 52 % 1017 hPa 0,0 l/m 4,0 m/s (1 Bft) W-NW22.5 290 0,00 min 35,4 klux 3,7 C 9,5 C
13.05.2004 15:50 13,8 C 14,2 C 53 % 1017 hPa 0,0 l/m 2,2 m/s (1 Bft) W-SW22.5 250 0,00 min 36,6 klux 4,4 C 12,9 C
13.05.2004 15:55 13,8 C 14,4 C 52 % 1017 hPa 0,0 l/m 1,3 m/s (1 Bft) W22.5 270 0,00 min 36,1 klux 4,1 C 13,8 C
13.05.2004 16:00 13,4 C 14,6 C 53 % 1017 hPa 0,0 l/m 2,4 m/s (1 Bft) W-SW22.5 250 0,00 min 24,5 klux 4,0 C 12,1 C
13.05.2004 16:05 13,8 C 14,5 C 53 % 1017 hPa 0,0 l/m 1,9 m/s (1 Bft) W45 265 0,00 min 24,4 klux 4,4 C 13,6 C
13.05.2004 16:10 13,8 C 14,6 C 50 % 1017 hPa 0,0 l/m 0,0 m/s (0 Bft) W 280 0,00 min 21,5 klux 3,6 C 13,8 C
13.05.2004 16:15 13,4 C 14,6 C 53 % 1017 hPa 0,0 l/m 0,7 m/s (0 Bft) W45 260 0,00 min 18,0 klux 4,0 C 13,4 C
13.05.2004 16:20 13,3 C 14,5 C 53 % 1017 hPa 0,0 l/m 2,1 m/s (1 Bft) W-NW 290 0,00 min 18,7 klux 3,9 C 12,6 C
13.05.2004 16:25 12,8 C 14,5 C 53 % 1017 hPa 0,0 l/m 2,3 m/s (1 Bft) O45 90 0,00 min 29,4 klux 3,5 C 11,7 C
13.05.2004 16:30 13,6 C 14,5 C 55 % 1017 hPa 0,0 l/m 1,6 m/s (1 Bft) O-SO45 120 0,00 min 30,8 klux 4,7 C 13,6 C
13.05.2004 16:35 13,5 C 14,6 C 53 % 1017 hPa 0,0 l/m 2,3 m/s (1 Bft) O-SO22.5 120 0,00 min 26,9 klux 4,1 C 12,3 C
13.05.2004 16:40 13,8 C 14,6 C 54 % 1017 hPa 0,0 l/m 1,7 m/s (1 Bft) SO22.5 135 0,00 min 23,8 klux 4,7 C 13,8 C
13.05.2004 16:45 13,7 C 14,6 C 51 % 1017 hPa 0,0 l/m 1,4 m/s (1 Bft) O-SO22.5 105 0,00 min 17,8 klux 3,8 C 13,7 C
13.05.2004 16:50 13,6 C 14,5 C 53 % 1017 hPa 0,0 l/m 0,1 m/s (0 Bft) O 95 0,00 min 15,1 klux 4,2 C 13,6 C
13.05.2004 16:55 13,5 C 14,4 C 52 % 1017 hPa 0,0 l/m 0,0 m/s (0 Bft) O-SO 115 0,00 min 18,2 klux 3,8 C 13,5 C
13.05.2004 17:00 13,7 C 14,4 C 53 % 1017 hPa 0,0 l/m 0,0 m/s (0 Bft) O-SO 115 0,00 min 21,8 klux 4,3 C 13,7 C
13.05.2004 17:05 14,1 C 14,4 C 51 % 1017 hPa 0,0 l/m 0,0 m/s (0 Bft) SO 130 0,00 min 23,9 klux 4,1 C 14,1 C
13.05.2004 17:10 14,1 C 14,4 C 51 % 1017 hPa 0,0 l/m 0,7 m/s (0 Bft) SW45 215 0,00 min 24,3 klux 4,1 C 14,1 C
13.05.2004 17:15 14,1 C 14,6 C 51 % 1017 hPa 0,0 l/m 1,3 m/s (1 Bft) SO45 135 0,00 min 25,1 klux 4,1 C 14,1 C
13.05.2004 17:20 14,1 C 14,7 C 51 % 1017 hPa 0,0 l/m 1,7 m/s (1 Bft) SO45 130 0,00 min 23,7 klux 4,1 C 14,1 C
13.05.2004 17:25 13,7 C 14,7 C 51 % 1017 hPa 0,0 l/m 2,1 m/s (1 Bft) SO22.5 125 0,00 min 25,9 klux 3,8 C 13,1 C
13.05.2004 17:30 13,9 C 14,8 C 51 % 1017 hPa 0,0 l/m 1,6 m/s (1 Bft) SO22.5 140 0,00 min 22,9 klux 3,9 C 13,9 C
13.05.2004 17:35 13,7 C 14,8 C 52 % 1017 hPa 0,0 l/m 1,7 m/s (1 Bft) SO22.5 125 0,00 min 21,1 klux 4,0 C 13,7 C
13.05.2004 17:40 13,8 C 14,8 C 49 % 1017 hPa 0,0 l/m 1,3 m/s (1 Bft) SO 140 0,00 min 16,8 klux 3,3 C 13,8 C
13.05.2004 17:45 14,0 C 14,8 C 49 % 1017 hPa 0,0 l/m 0,0 m/s (0 Bft) SO 125 0,00 min 19,1 klux 3,5 C 14,0 C
13.05.2004 17:50 14,1 C 14,8 C 51 % 1017 hPa 0,0 l/m 0,2 m/s (0 Bft) SO22.5 135 0,00 min 22,5 klux 4,1 C 14,1 C
13.05.2004 17:55 13,7 C 14,8 C 49 % 1017 hPa 0,0 l/m 0,8 m/s (0 Bft) SO45 140 0,00 min 22,7 klux 3,2 C 13,7 C
13.05.2004 18:00 14,0 C 14,9 C 48 % 1017 hPa 0,0 l/m 1,3 m/s (1 Bft) O22.5 90 0,00 min 22,7 klux 3,2 C 14,0 C
13.05.2004 18:05 14,0 C 15,1 C 48 % 1017 hPa 0,0 l/m 0,1 m/s (0 Bft) O 90 0,00 min 23,5 klux 3,2 C 14,0 C
13.05.2004 18:10 14,1 C 15,1 C 47 % 1017 hPa 0,0 l/m 1,5 m/s (1 Bft) W-NW22.5 285 0,00 min 29,1 klux 3,0 C 14,1 C
13.05.2004 18:15 14,2 C 15,2 C 48 % 1017 hPa 0,0 l/m 0,0 m/s (0 Bft) W-NW22.5 300 0,00 min 23,2 klux 3,4 C 14,2 C
13.05.2004 18:20 14,2 C 15,2 C 46 % 1017 hPa 0,0 l/m 0,0 m/s (0 Bft) NW 310 0,00 min 18,4 klux 2,8 C 14,2 C
13.05.2004 18:25 13,8 C 15,2 C 48 % 1017 hPa 0,0 l/m 1,0 m/s (0 Bft) N-NO67.5 25 0,00 min 14,6 klux 3,0 C 13,8 C
13.05.2004 18:30 13,4 C 15,1 C 50 % 1018 hPa 0,0 l/m 1,7 m/s (1 Bft) O-SO22.5 105 0,00 min 12,3 klux 3,2 C 13,4 C
13.05.2004 18:35 13,5 C 15,0 C 50 % 1018 hPa 0,0 l/m 1,4 m/s (1 Bft) O-NO22.5 75 0,00 min 16,8 klux 3,3 C 13,5 C
13.05.2004 18:40 13,5 C 15,0 C 52 % 1018 hPa 0,0 l/m 1,4 m/s (1 Bft) O-NO22.5 75 0,00 min 14,5 klux 3,8 C 13,5 C
13.05.2004 18:45 13,5 C 15,1 C 50 % 1018 hPa 0,0 l/m 1,6 m/s (1 Bft) O-SO22.5 105 0,00 min 15,1 klux 3,3 C 13,5 C
13.05.2004 18:50 13,3 C 15,1 C 49 % 1018 hPa 0,0 l/m 1,8 m/s (1 Bft) O22.5 90 0,00 min 19,8 klux 2,8 C 13,3 C
13.05.2004 18:55 13,7 C 15,3 C 50 % 1018 hPa 0,0 l/m 1,6 m/s (1 Bft) O-NO45 75 0,00 min 20,5 klux 3,5 C 13,7 C
13.05.2004 19:00 13,5 C 15,3 C 50 % 1018 hPa 0,0 l/m 1,8 m/s (1 Bft) O22.5 95 0,00 min 17,8 klux 3,3 C 13,5 C
13.05.2004 19:05 13,1 C 15,1 C 53 % 1018 hPa 0,0 l/m 2,3 m/s (1 Bft) O45 90 0,00 min 12,2 klux 3,7 C 11,9 C
13.05.2004 19:10 13,0 C 14,9 C 53 % 1018 hPa 0,0 l/m 1,9 m/s (1 Bft) O-SO22.5 110 0,00 min 10,7 klux 3,6 C 12,8 C
13.05.2004 19:15 13,0 C 14,7 C 54 % 1018 hPa 0,0 l/m 1,6 m/s (1 Bft) O22.5 95 0,00 min 8,09 klux 3,9 C 13,0 C
13.05.2004 19:20 12,8 C 14,5 C 57 % 1018 hPa 0,0 l/m 1,3 m/s (1 Bft) O22.5 95 0,00 min 5,86 klux 4,5 C 12,8 C
13.05.2004 19:25 12,8 C 14,4 C 56 % 1018 hPa 0,0 l/m 0,9 m/s (0 Bft) O 95 0,00 min 4,65 klux 4,2 C 12,8 C
13.05.2004 19:30 12,7 C 14,1 C 57 % 1018 hPa 0,0 l/m 0,0 m/s (0 Bft) O 95 0,00 min 4,67 klux 4,4 C 12,7 C
13.05.2004 19:35 12,6 C 14,0 C 58 % 1018 hPa 0,0 l/m 0,0 m/s (0 Bft) O-SO 105 0,00 min 5,40 klux 4,6 C 12,6 C
13.05.2004 19:40 12,6 C 13,8 C 58 % 1018 hPa 0,0 l/m 0,0 m/s (0 Bft) O 95 0,00 min 6,73 klux 4,6 C 12,6 C
13.05.2004 19:45 12,7 C 13,7 C 59 % 1018 hPa 0,0 l/m 0,0 m/s (0 Bft) O 95 0,00 min 6,73 klux 4,9 C 12,7 C
13.05.2004 19:50 12,9 C 13,7 C 60 % 1018 hPa 0,0 l/m 0,0 m/s (0 Bft) O 95 0,00 min 9,7 klux 5,3 C 12,9 C
13.05.2004 19:55 12,9 C 13,7 C 59 % 1018 hPa 0,0 l/m 0,0 m/s (0 Bft) O 95 0,00 min 9,7 klux 5,1 C 12,9 C
13.05.2004 20:00 12,7 C 13,6 C 60 % 1018 hPa 0,0 l/m 0,0 m/s (0 Bft) O 95 0,00 min 8,31 klux 5,1 C 12,7 C
13.05.2004 20:05 12,4 C 13,5 C 60 % 1018 hPa 0,0 l/m 0,0 m/s (0 Bft) O 95 0,00 min 6,31 klux 4,9 C 12,4 C
13.05.2004 20:10 12,2 C 13,3 C 62 % 1018 hPa 0,0 l/m 0,0 m/s (0 Bft) O 95 0,00 min 5,69 klux 5,1 C 12,2 C
13.05.2004 20:15 12,0 C 13,1 C 63 % 1018 hPa 0,0 l/m 0,0 m/s (0 Bft) O 95 0,00 min 4,92 klux 5,2 C 12,0 C
13.05.2004 20:20 11,8 C 12,9 C 67 % 1018 hPa 0,0 l/m 0,0 m/s (0 Bft) O 95 0,00 min 4,32 klux 5,9 C 11,8 C
13.05.2004 20:25 11,5 C 12,8 C 67 % 1018 hPa 0,0 l/m 0,0 m/s (0 Bft) O 95 0,00 min 3,39 klux 5,6 C 11,5 C
13.05.2004 20:30 11,4 C 12,6 C 68 % 1018 hPa 0,0 l/m 0,0 m/s (0 Bft) O 95 0,00 min 2,93 klux 5,7 C 11,4 C
13.05.2004 20:35 11,1 C 12,4 C 69 % 1018 hPa 0,0 l/m 0,0 m/s (0 Bft) O 95 0,00 min 1,96 klux 5,6 C 11,1 C
13.05.2004 20:40 10,7 C 12,2 C 70 % 1018 hPa 0,0 l/m 0,0 m/s (0 Bft) O 95 0,00 min 1,44 klux 5,5 C 10,7 C
13.05.2004 20:45 10,7 C 12,1 C 70 % 1018 hPa 0,0 l/m 0,0 m/s (0 Bft) O 95 0,00 min 1,22 klux 5,5 C 10,7 C
13.05.2004 20:50 10,4 C 12,0 C 70 % 1018 hPa 0,0 l/m 0,0 m/s (0 Bft) O 95 0,00 min 908 lux 5,2 C 10,4 C
13.05.2004 20:55 10,2 C 11,7 C 70 % 1018 hPa 0,0 l/m 0,0 m/s (0 Bft) O 95 0,00 min 666 lux 5,0 C 10,2 C
13.05.2004 21:00 10,1 C 11,7 C 71 % 1018 hPa 0,0 l/m 0,0 m/s (0 Bft) O 95 0,00 min 473 lux 5,1 C 10,1 C
13.05.2004 21:05 10,0 C 11,5 C 71 % 1018 hPa 0,0 l/m 0,0 m/s (0 Bft) O 95 0,00 min 321 lux 5,0 C 10,0 C
13.05.2004 21:10 9,9 C 11,3 C 73 % 1018 hPa 0,0 l/m 0,0 m/s (0 Bft) O 95 0,00 min 217 lux 5,3 C 9,9 C
13.05.2004 21:15 9,7 C 11,1 C 73 % 1018 hPa 0,0 l/m 0,0 m/s (0 Bft) O 95 0,00 min 151 lux 5,1 C 9,7 C
13.05.2004 21:20 9,9 C 11,1 C 73 % 1018 hPa 0,0 l/m 0,0 m/s (0 Bft) O 95 0,00 min 99 lux 5,3 C 9,9 C
13.05.2004 21:25 10,0 C 11,0 C 73 % 1018 hPa 0,0 l/m 0,0 m/s (0 Bft) O 95 0,00 min 60 lux 5,4 C 10,0 C
13.05.2004 21:30 9,5 C 10,8 C 75 % 1019 hPa 0,0 l/m 0,0 m/s (0 Bft) O 95 0,00 min 34 lux 5,3 C 9,5 C
13.05.2004 21:35 9,4 C 10,7 C 75 % 1019 hPa 0,0 l/m 0,0 m/s (0 Bft) O 95 0,00 min 20 lux 5,2 C 9,4 C
13.05.2004 21:40 9,6 C 10,6 C 77 % 1019 hPa 0,0 l/m 0,0 m/s (0 Bft) O 95 0,00 min 15 lux 5,8 C 9,6 C
13.05.2004 21:45 9,5 C 10,6 C 77 % 1019 hPa 0,0 l/m 0,0 m/s (0 Bft) O 95 0,00 min 11 lux 5,7 C 9,5 C
13.05.2004 21:50 9,5 C 10,5 C 77 % 1019 hPa 0,0 l/m 0,0 m/s (0 Bft) O 95 0,00 min 6 lux 5,7 C 9,5 C
13.05.2004 21:55 9,3 C 10,4 C 76 % 1019 hPa 0,0 l/m 0,0 m/s (0 Bft) O 95 0,00 min 4 lux 5,3 C 9,3 C
13.05.2004 22:00 9,0 C 10,4 C 77 % 1019 hPa 0,0 l/m 0,0 m/s (0 Bft) O 95 0,00 min 0 lux 5,2 C 9,0 C
13.05.2004 22:05 9,3 C 10,3 C 78 % 1019 hPa 0,0 l/m 0,0 m/s (0 Bft) O 95 0,00 min 0 lux 5,7 C 9,3 C
13.05.2004 22:10 9,4 C 10,3 C 78 % 1019 hPa 0,0 l/m 0,0 m/s (0 Bft) O 95 0,00 min 0 lux 5,8 C 9,4 C
13.05.2004 22:15 9,2 C 10,3 C 78 % 1019 hPa 0,0 l/m 0,0 m/s (0 Bft) O 95 0,00 min 0 lux 5,6 C 9,2 C
13.05.2004 22:20 9,2 C 10,2 C 79 % 1019 hPa 0,0 l/m 0,0 m/s (0 Bft) O 95 0,00 min 0 lux 5,8 C 9,2 C
13.05.2004 22:25 9,2 C 10,2 C 79 % 1019 hPa 0,0 l/m 0,0 m/s (0 Bft) O 95 0,00 min 0 lux 5,8 C 9,2 C
13.05.2004 22:30 9,2 C 10,2 C 79 % 1019 hPa 0,0 l/m 0,0 m/s (0 Bft) O 95 0,00 min 0 lux 5,8 C 9,2 C
13.05.2004 22:35 9,2 C 10,1 C 79 % 1019 hPa 0,0 l/m 0,0 m/s (0 Bft) O 95 0,00 min 0 lux 5,8 C 9,2 C
13.05.2004 22:40 9,2 C 10,1 C 79 % 1019 hPa 0,0 l/m 0,0 m/s (0 Bft) O 95 0,00 min 0 lux 5,8 C 9,2 C
13.05.2004 22:45 9,1 C 10,0 C 79 % 1019 hPa 0,0 l/m 0,0 m/s (0 Bft) O 95 0,00 min 0 lux 5,7 C 9,1 C
13.05.2004 22:50 8,5 C 10,0 C 80 % 1019 hPa 0,0 l/m 0,1 m/s (0 Bft) O-SO 110 0,00 min 0 lux 5,3 C 8,5 C
13.05.2004 22:55 8,6 C 9,8 C 81 % 1019 hPa 0,0 l/m 0,0 m/s (0 Bft) O-SO 110 0,00 min 0 lux 5,5 C 8,6 C
13.05.2004 23:00 8,6 C 9,7 C 81 % 1019 hPa 0,0 l/m 0,0 m/s (0 Bft) O-SO 110 0,00 min 0 lux 5,5 C 8,6 C
13.05.2004 23:05 8,5 C 9,6 C 81 % 1019 hPa 0,0 l/m 0,0 m/s (0 Bft) O-SO 110 0,00 min 0 lux 5,4 C 8,5 C
13.05.2004 23:10 8,5 C 9,5 C 82 % 1019 hPa 0,0 l/m 0,0 m/s (0 Bft) O-SO 110 0,00 min 0 lux 5,6 C 8,5 C
13.05.2004 23:15 8,5 C 9,6 C 82 % 1019 hPa 0,0 l/m 0,0 m/s (0 Bft) O-SO 110 0,00 min 0 lux 5,6 C 8,5 C
13.05.2004 23:20 8,5 C 9,5 C 82 % 1019 hPa 0,0 l/m 0,0 m/s (0 Bft) O-SO 110 0,00 min 0 lux 5,6 C 8,5 C
13.05.2004 23:25 8,5 C 9,5 C 83 % 1019 hPa 0,0 l/m 0,0 m/s (0 Bft) O-SO 110 0,00 min 0 lux 5,8 C 8,5 C
13.05.2004 23:30 8,5 C 9,4 C 82 % 1020 hPa 0,0 l/m 0,0 m/s (0 Bft) SO45 135 0,00 min 0 lux 5,6 C 8,5 C
13.05.2004 23:35 8,5 C 9,4 C 82 % 1020 hPa 0,0 l/m 0,0 m/s (0 Bft) S-SW 195 0,00 min 0 lux 5,6 C 8,5 C
13.05.2004 23:40 8,6 C 9,4 C 82 % 1020 hPa 0,0 l/m 0,1 m/s (0 Bft) W22.5 270 0,00 min 0 lux 5,7 C 8,6 C
13.05.2004 23:45 8,5 C 9,3 C 82 % 1020 hPa 0,0 l/m 1,4 m/s (1 Bft) W-SW 250 0,00 min 0 lux 5,6 C 8,5 C
13.05.2004 23:50 8,3 C 9,2 C 82 % 1020 hPa 0,0 l/m 0,0 m/s (0 Bft) W-SW 245 0,00 min 0 lux 5,4 C 8,3 C
13.05.2004 23:55 8,0 C 9,1 C 82 % 1020 hPa 0,0 l/m 0,0 m/s (0 Bft) W-SW22.5 245 0,00 min 0 lux 5,1 C 8,0 C
_ Min-Zeit 05:55 06:35 18:20 02:00 - 00:15 - - - - 06:40 03:35
Minimum _ 7,0 C 7,8 C 46 % 1015 hPa - 0,0 m/s (0 Bft) - - - - 1,0 C 1,8 C
_ Max-Zeit 18:15 18:55 23:25 23:30 00:00 14:20 - - 08:05 14:05 20:20 18:15
Maximum _ 14,2 C 15,3 C 83 % 1020 hPa 0,0 l/m 7,1 m/s
W-NW (4 Bft)
- - 5,00 min 64,8 klux 5,9 C 14,2 C
Durchschnitt _ 10,3 C 11,1 C 64 % 1017 hPa #0,0 l/m 1,8 m/s (2 Bft) W-NW - #25 min. 14,0 klux 3,8 C 8,9 C